Simultaneous Nadir Overpasses (SNOs) Predictions

Prediction of SNOs between LANDSAT-8 and NOAA-19 Satellite Orbit:

Table of predicted SNOs for the next 14.0 days since TLE Epoch: 2/27/2021
Index Date (LANDSAT-8) Time (LANDSAT-8) Lat,Lon (LANDSAT-8) SZA (LANDSAT-8 ) Date (NOAA-19) Time (NOAA-19) Lat,Lon (NOAA-19) SZA (NOAA-19 ) Distance(km) Time Diff (sec)
1 02/28/2021 16:35:47 80.25, -39.41 88.90 02/28/2021 16:34:51 80.26, -39.47 88.89 2.05 56
2 02/28/2021 17:25:14 -80.24, 128.19 91.12 02/28/2021 17:25:51 -80.24, 128.04 91.12 2.88 37
3 03/02/2021 22:58:56 80.26,-135.06 88.07 03/02/2021 22:59:02 80.24,-135.05 88.05 2.75 6
4 03/05/2021 04:32:40 -80.24, -38.68 92.81 03/05/2021 04:32:17 -80.26, -38.68 92.80 2.41 23
5 03/05/2021 05:22:06 80.24, 128.97 87.18 03/05/2021 05:23:14 80.23, 129.03 87.20 1.44 68
6 03/07/2021 10:06:22 80.25, 57.99 86.36 03/07/2021 10:05:27 80.26, 58.14 86.36 2.93 55
7 03/07/2021 10:55:49 -80.25,-134.36 93.66 03/07/2021 10:56:29 -80.25,-134.42 93.66 1.33 40
8 03/09/2021 16:29:31 80.26, -37.72 85.50 03/09/2021 16:29:39 80.26, -37.81 85.49 1.62 8
9 03/11/2021 22:03:14 -80.27, 58.95 95.35 03/11/2021 22:02:54 -80.25, 59.07 95.36 3.00 20



Historial Predications of SNOs between LANDSAT-8 and NOAA-19
